Showing default

COSMOS 2491, 39497

Orbit data source: Space-Track

COSMOS 2491, 39497 is a payload satellite owned by TsNIIKhM (CIS) in LEO that was launched on Wed, 25 Dec 2013 UTC via an ROKOT launch vehicle from the Plesetsk Missile And Space Complex (PKMTR). Payload-class satellites include a variety of spacecraft equipped with specific instruments for various scientific and technological missions. These include communications satellites like Starlink; space stations such as the ISS; scientific satellites like the Hubble; Earth observation satellites from companies like Planet Labs, Umbra, and HawkEye 360; GPS; miniature CubeSats for education and research; and military/defense satellites.

Loading next visibility...
Identifier
39497, 2013-076E
Orbit
LEO
Country
Flag of CISCIS
Related business
Manufacturer
TsNIIKhM
Mission
Non-operational Defense Technology
Bus & Motor
NIVELIR, Unknown motor
Mass
~100 kg wet, ~100 kg dry
Launch date (UTC)
2013-12-25 (12 years ago)
Launch vehicle
ROKOT
Launch site
Plesetsk Missile And Space Complex (PKMTR)
Object type
Payload
Rocket body
Debris
Shape & HBR
Hex Box, 0.5 m
Radar Cross Section
0.900 m², Medium (>0.1 m² and < 1m²)

Expand to show TLE details & history
Last TLE update: 6 hours ago

TLE from 6 hours ago
0 COSMOS 2491
1 39497U 13076E   25312.16077970  .00000002  00000-0 -58456-4 0  9994
2 39497  82.4825 306.0956 0012328 208.7173 151.3229 12.43492257537788
Epoch: 2025-11-08T03:51Z
TLE epoch observation values (Epoch: 2025-11-08T03:51:31.366Z)
Latitude
-0.00005°
Longitude
-159.37947°
Altitude
1,503.05 km
Speed
7.109 km/s
True Right ascension
20h 24m 22s
True Declination
0° 00' 00"
Sunlit
Object was in daylight at epoch
Visualization orbit readout
Latitude
Unknown
Longitude
Unknown
Altitude
Unknown
Speed
Unknown
Apparent Right ascension
Unknown
Apparent Declination
Unknown
Sunlit
N/A
Visualization observer readout
Local Sidereal Time
05:39:28
Azimuth
Unknown
Elevation
Unknown
Doppler factor
Unknown
Orbital elements
Apogee altitude
1,498.884 km
Perigee altitude
1,479.486 km
Semi-major axis
7,867.322 km
Eccentricity
0.00123
Inclination
82.4825°
RAAN
306.0956°
Arg. of periapsis
208.7173°
True anomaly
151.3906°
Mean anomaly
151.3229°
Eccentric anomaly
151.35676°
Mean motion
3.1103 °/min
Orbital period
115.74 mins
BSTAR
-0.000058456
Loading maneuver chart data...
Computing Atmospheric mass density...
Loading historical data...
Loading historical data...
Loading historical data...
Loading historical data...
Loading historical data...
Loading historical data...
Loading historical data...

Documentation

Showing up to 5 results
|